Dewpoint
-10 -10 -10 -10 -11 -11 -11 -11 -10 -10 -10 -11 -11 -11 -11 -12 -12 -12 -12 -13 -13 -13 -13 -13 -14 -14 -14 -14 -15 -15 -15 -15 -16 -16 -16 -17 -17 -17 -17 -17 -18 -18 -17 -17 -17 -16 -15 -15 -15 -16 -15 -15 -16 -19 -22 -24 -26 -29 -31 -32 -32 -32 -32
-9 -9 -10 -10 -10 -11 -10 -10 -10 -10 -10 -10 -10 -11 -11 -11 -12 -12 -12 -12 -13 -13 -13 -13 -14 -14 -14 -14 -15 -15 -15 -15 -16 -16 -16 -17 -17 -17 -17 -17 -18 -18 -17 -17 -16 -16 -15 -15 -15 -16 -15 -14 -15 -18 -22 -25 -27 -30 -32 -33 -33 -33 -33
-9 -9 -9 -9 -10 -10 -10 -10 -10 -10 -10 -10 -10 -10 -11 -11 -11 -12 -12 -12 -12 -13 -13 -13 -13 -13 -14 -15 -15 -15 -15 -16 -16 -16 -16 -16 -16 -17 -16 -16 -17 -17 -17 -16 -16 -15 -15 -14 -15 -15 -15 -14 -15 -18 -22 -25 -29 -31 -33 -33 -34 -33 -33
-10 -9 -9 -9 -10 -10 -10 -10 -10 -10 -10 -10 -10 -10 -10 -10 -11 -11 -11 -12 -12 -12 -13 -13 -13 -13 -14 -15 -15 -15 -15 -16 -16 -16 -16 -16 -16 -16 -16 -16 -16 -16 -16 -15 -15 -15 -15 -14 -15 -15 -14 -15 -16 -18 -22 -25 -29 -32 -33 -33 -34 -34 -33
-11 -10 -10 -10 -10 -11 -11 -10 -9 -9 -9 -9 -10 -10 -10 -10 -11 -11 -11 -12 -12 -12 -13 -13 -13 -13 -14 -15 -15 -15 -15 -16 -16 -16 -16 -16 -16 -17 -16 -16 -16 -16 -16 -15 -15 -15 -15 -15 -15 -15 -14 -15 -16 -19 -22 -26 -29 -31 -33 -34 -34 -34 -34
-11 -10 -10 -11 -11 -11 -10 -9 -9 -9 -9 -9 -9 -10 -10 -10 -11 -11 -11 -12 -12 -12 -13 -13 -13 -13 -14 -14 -14 -14 -15 -15 -15 -16 -16 -16 -16 -16 -16 -16 -16 -15 -15 -15 -15 -15 -15 -15 -15 -15 -14 -14 -16 -19 -22 -25 -28 -30 -32 -33 -33 -34 -34
-11 -11 -11 -11 -11 -10 -9 -9 -9 -9 -9 -9 -9 -10 -10 -10 -11 -11 -11 -11 -12 -12 -12 -13 -13 -13 -13 -14 -14 -14 -14 -14 -15 -15 -16 -15 -15 -16 -16 -15 -15 -15 -15 -15 -15 -15 -16 -16 -15 -15 -14 -15 -17 -20 -22 -25 -27 -29 -31 -32 -33 -34 -34
-12 -12 -11 -11 -10 -9 -9 -9 -9 -10 -10 -10 -10 -10 -10 -10 -10 -11 -11 -11 -11 -12 -12 -12 -12 -13 -13 -13 -13 -13 -14 -14 -15 -15 -15 -15 -15 -15 -15 -15 -15 -15 -15 -15 -15 -15 -15 -15 -15 -15 -14 -15 -18 -20 -22 -24 -26 -28 -29 -31 -32 -32 -33
-11 -11 -11 -11 -10 -9 -9 -9 -9 -10 -10 -10 -10 -10 -10 -10 -10 -10 -10 -11 -11 -11 -11 -12 -12 -12 -12 -13 -13 -13 -13 -14 -14 -14 -15 -15 -15 -15 -15 -15 -15 -15 -15 -15 -15 -15 -15 -15 -15 -15 -15 -16 -18 -19 -21 -23 -25 -27 -28 -29 -31 -32 -33
-9 -10 -10 -10 -10 -10 -9 -9 -9 -9 -9 -10 -10 -10 -10 -10 -10 -10 -10 -10 -10 -11 -11 -11 -12 -12 -12 -12 -13 -13 -13 -14 -14 -14 -14 -14 -15 -15 -15 -15 -15 -15 -15 -15 -15 -15 -15 -15 -15 -14 -15 -15 -17 -19 -21 -23 -25 -26 -27 -28 -29 -31 -33
-9 -9 -9 -9 -10 -10 -9 -9 -9 -9 -10 -10 -10 -10 -10 -10 -10 -10 -10 -10 -10 -11 -11 -11 -11 -12 -12 -13 -13 -13 -14 -14 -14 -14 -15 -15 -15 -15 -15 -15 -15 -15 -15 -15 -15 -15 -15 -15 -15 -14 -14 -15 -18 -20 -21 -23 -24 -25 -26 -27 -28 -31 -33
-10 -10 -10 -10 -10 -10 -9 -9 -9 -9 -9 -9 -10 -10 -10 -10 -10 -10 -10 -10 -10 -11 -11 -11 -11 -12 -12 -12 -13 -13 -13 -14 -14 -14 -15 -15 -15 -15 -15 -15 -15 -15 -15 -15 -15 -15 -15 -15 -15 -14 -15 -16 -18 -20 -22 -23 -24 -25 -25 -27 -28 -30 -32
-11 -11 -11 -11 -10 -10 -10 -10 -10 -10 -10 -10 -10 -10 -10 -11 -10 -11 -11 -11 -11 -11 -11 -11 -11 -12 -12 -12 -12 -13 -13 -13 -14 -14 -15 -15 -15 -15 -15 -15 -15 -15 -15 -15 -15 -15 -15 -15 -14 -14 -15 -18 -19 -21 -22 -23 -24 -24 -25 -27 -28 -31 -33
-12 -12 -12 -12 -12 -11 -11 -11 -11 -11 -11 -11 -11 -11 -11 -11 -11 -12 -12 -12 -12 -12 -12 -12 -12 -12 -12 -12 -12 -13 -13 -13 -14 -14 -15 -15 -15 -15 -15 -16 -16 -16 -15 -15 -15 -15 -15 -15 -15 -15 -17 -19 -20 -21 -22 -23 -24 -25 -26 -27 -29 -30 -31
-13 -13 -13 -13 -13 -12 -13 -12 -12 -12 -12 -12 -12 -12 -12 -12 -12 -12 -12 -12 -12 -12 -12 -12 -12 -12 -12 -12 -13 -13 -13 -13 -14 -14 -14 -15 -15 -15 -15 -15 -15 -15 -15 -15 -15 -15 -15 -15 -15 -16 -18 -19 -20 -21 -22 -23 -23 -24 -25 -26 -26 -27 -27
-13 -13 -13 -13 -13 -13 -13 -13 -13 -13 -13 -13 -13 -13 -13 -13 -13 -13 -13 -13 -13 -12 -12 -12 -12 -12 -13 -13 -13 -13 -13 -13 -13 -14 -14 -14 -14 -15 -15 -15 -15 -15 -15 -15 -15 -15 -15 -15 -16 -17 -18 -19 -20 -21 -22 -22 -23 -23 -23 -24 -25 -27 -28
-14 -14 -14 -14 -14 -14 -14 -14 -14 -14 -14 -14 -14 -14 -14 -14 -14 -14 -13 -13 -13 -13 -13 -13 -13 -13 -13 -13 -13 -13 -13 -13 -14 -14 -14 -14 -15 -15 -15 -15 -15 -15 -15 -15 -15 -15 -15 -15 -16 -17 -18 -19 -20 -21 -22 -22 -22 -23 -23 -24 -26 -28 -28
-15 -15 -15 -15 -15 -15 -15 -15 -15 -15 -15 -15 -14 -15 -15 -14 -14 -14 -14 -14 -14 -14 -14 -14 -14 -14 -13 -13 -13 -13 -13 -13 -14 -14 -15 -15 -15 -15 -15 -15 -15 -15 -16 -16 -16 -16 -16 -16 -16 -17 -18 -19 -20 -20 -20 -20 -21 -21 -22 -23 -24 -25 -25
-15 -15 -15 -16 -16 -16 -16 -16 -16 -16 -16 -15 -15 -15 -15 -15 -15 -15 -15 -15 -15 -15 -15 -15 -15 -15 -14 -14 -14 -14 -14 -14 -14 -15 -15 -15 -15 -15 -15 -16 -16 -16 -16 -16 -16 -16 -16 -16 -17 -17 -18 -18 -18 -19 -18 -18 -19 -19 -19 -20 -20 -20 -20
-16 -16 -16 -16 -17 -17 -17 -17 -17 -17 -17 -16 -16 -16 -16 -16 -16 -16 -16 -16 -16 -16 -16 -16 -16 -16 -15 -15 -15 -15 -15 -15 -15 -15 -15 -15 -16 -16 -16 -16 -16 -16 -16 -16 -16 -17 -17 -18 -18 -18 -18 -18 -18 -18 -18 -18 -19 -19 -19 -19 -19 -19 -19
-17 -17 -17 -17 -17 -17 -17 -17 -17 -17 -17 -17 -17 -17 -17 -17 -17 -17 -17 -17 -17 -17 -17 -17 -17 -17 -17 -16 -16 -16 -16 -15 -15 -15 -15 -15 -16 -16 -17 -16 -16 -16 -16 -17 -17 -18 -19 -19 -19 -19 -19 -19 -19 -19 -19 -19 -19 -19 -19 -19 -19 -19 -20
-20 -20 -20 -20 -19 -19 -19 -19 -20 -20 -20 -19 -19 -19 -19 -19 -18 -18 -18 -18 -18 -18 -18 -18 -18 -18 -18 -17 -17 -17 -17 -16 -15 -15 -15 -15 -16 -16 -16 -16 -16 -16 -16 -17 -17 -18 -18 -19 -20 -20 -20 -20 -21 -21 -21 -21 -21 -21 -21 -21 -20 -20 -20
-27 -27 -27 -27 -26 -26 -26 -26 -26 -27 -26 -26 -26 -26 -25 -25 -24 -23 -22 -21 -20 -19 -19 -18 -18 -18 -18 -18 -18 -18 -17 -17 -16 -16 -16 -15 -16 -16 -16 -16 -16 -16 -16 -17 -17 -17 -18 -18 -19 -20 -20 -20 -21 -21 -22 -23 -24 -24 -24 -24 -23 -22 -20
-33 -32 -32 -32 -32 -32 -32 -32 -32 -32 -32 -32 -32 -32 -32 -31 -31 -31 -30 -28 -26 -24 -23 -22 -21 -20 -19 -18 -18 -18 -18 -18 -17 -17 -17 -16 -16 -16 -16 -16 -17 -17 -17 -17 -17 -17 -17 -18 -18 -19 -20 -20 -21 -21 -21 -21 -22 -23 -23 -24 -24 -23 -21
-30 -30 -30 -30 -30 -30 -31 -31 -30 -30 -30 -30 -30 -30 -30 -30 -30 -30 -30 -30 -29 -29 -29 -28 -27 -25 -23 -21 -20 -19 -18 -18 -18 -18 -18 -17 -17 -17 -17 -17 -17 -17 -17 -18 -18 -18 -18 -18 -19 -19 -20 -21 -21 -21 -21 -20 -20 -21 -21 -21 -22 -21 -21
-28 -28 -28 -27 -27 -27 -28 -28 -28 -28 -28 -28 -27 -27 -27 -27 -27 -26 -25 -24 -24 -24 -25 -25 -25 -26 -26 -27 -26 -23 -21 -19 -19 -19 -19 -18 -18 -18 -18 -18 -18 -18 -18 -18 -18 -18 -18 -18 -19 -19 -20 -20 -20 -20 -21 -21 -21 -20 -20 -20 -20 -20 -20
-27 -26 -25 -24 -24 -25 -26 -26 -27 -28 -28 -28 -27 -26 -25 -25 -24 -24 -23 -22 -22 -22 -22 -22 -22 -22 -23 -24 -26 -26 -26 -25 -23 -21 -21 -20 -20 -19 -19 -19 -19 -19 -19 -19 -19 -19 -19 -19 -19 -19 -19 -19 -19 -20 -20 -20 -20 -20 -20 -20 -20 -20 -20
-25 -24 -23 -23 -23 -24 -24 -25 -26 -26 -26 -26 -25 -24 -23 -23 -23 -22 -22 -22 -22 -22 -23 -22 -22 -22 -22 -21 -21 -22 -24 -25 -25 -26 -26 -24 -23 -21 -20 -20 -20 -20 -20 -20 -20 -20 -20 -20 -20 -20 -20 -20 -20 -20 -20 -20 -20 -20 -20 -20 -20 -20 -20
-23 -23 -23 -23 -23 -23 -24 -24 -24 -25 -25 -25 -23 -23 -23 -23 -22 -22 -22 -22 -23 -23 -23 -23 -23 -23 -23 -22 -22 -22 -22 -22 -22 -23 -25 -26 -25 -24 -22 -21 -21 -21 -20 -20 -20 -20 -20 -20 -20 -21 -21 -21 -21 -21 -21 -21 -21 -21 -21 -21 -21 -21 -21
-23 -23 -24 -24 -24 -24 -24 -24 -25 -25 -25 -25 -24 -23 -23 -23 -23 -23 -23 -23 -23 -23 -23 -23 -23 -23 -23 -23 -23 -23 -23 -23 -22 -22 -22 -23 -23 -23 -23 -23 -22 -22 -21 -21 -21 -21 -21 -21 -21 -21 -21 -21 -21 -21 -21 -21 -21 -22 -22 -22 -21 -22 -22
-25 -25 -25 -25 -25 -25 -25 -25 -25 -25 -25 -25 -24 -24 -24 -24 -24 -24 -24 -24 -24 -24 -23 -23 -23 -23 -24 -24 -24 -24 -24 -24 -23 -23 -23 -23 -22 -22 -22 -22 -22 -22 -22 -22 -21 -21 -21 -21 -21 -22 -22 -22 -22 -22 -22 -22 -22 -22 -22 -22 -22 -22 -22
-25 -25 -25 -25 -25 -25 -25 -25 -25 -25 -25 -25 -25 -25 -25 -25 -25 -25 -25 -25 -25 -25 -24 -24 -25 -25 -25 -25 -25 -25 -25 -25 -24 -24 -24 -24 -24 -23 -23 -22 -22 -22 -22 -22 -22 -22 -22 -22 -22 -22 -22 -22 -22 -22 -22 -23 -23 -23 -23 -23 -23 -23 -23
-24 -25 -25 -25 -25 -25 -25 -26 -26 -26 -26 -26 -26 -27 -27 -26 -26 -26 -26 -26 -26 -26 -26 -26 -26 -26 -26 -26 -26 -26 -26 -26 -26 -26 -25 -25 -25 -25 -24 -24 -24 -23 -23 -23 -23 -23 -23 -23 -23 -23 -23 -23 -23 -23 -23 -23 -23 -23 -23 -23 -23 -24 -24
-26 -26 -26 -26 -26 -26 -26 -26 -27 -27 -28 -28 -28 -28 -28 -28 -28 -28 -28 -28 -28 -28 -28 -28 -28 -28 -28 -28 -28 -28 -28 -28 -27 -27 -27 -27 -26 -26 -26 -25 -25 -25 -24 -24 -24 -24 -23 -23 -23 -23 -23 -23 -23 -23 -23 -23 -24 -24 -24 -24 -24 -24 -24
-26 -26 -26 -26 -26 -27 -27 -28 -28 -29 -30 -30 -30 -30 -30 -31 -31 -31 -31 -31 -31 -31 -31 -30 -30 -30 -30 -30 -30 -30 -30 -30 -29 -29 -28 -28 -28 -28 -27 -27 -26 -26 -26 -25 -25 -25 -24 -24 -24 -24 -24 -24 -24 -24 -24 -24 -24 -24 -24 -24 -23 -23 -24
-26 -26 -27 -27 -28 -29 -29 -30 -31 -31 -32 -31 -32 -32 -32 -33 -33 -33 -33 -33 -33 -33 -33 -32 -32 -32 -32 -32 -32 -32 -31 -31 -31 -31 -30 -30 -29 -29 -29 -28 -28 -27 -27 -26 -26 -26 -25 -25 -25 -24 -24 -24 -24 -24 -24 -24 -24 -24 -23 -23 -23 -23 -24
Wind_Speed
36 36 37 37 39 40 41 43 44 45 46 47 49 49 50 51 51 53 53 53 54 55 55 56 56 56 56 55 56 56 57 57 57 57 58 57 57 57 56 54 51 51 51 49 47 46 43 41 40 39 38 37 36 34 34 33 32 31 31 31 31 31 31
36 36 36 37 39 40 41 43 44 44 46 47 48 49 50 50 51 52 53 53 54 54 54 55 56 56 55 54 55 56 56 57 57 56 57 57 57 56 56 55 53 52 51 50 50 49 47 45 44 42 41 40 38 36 34 32 32 31 31 31 32 32 31
34 35 36 37 38 40 42 43 44 44 46 47 48 49 49 50 50 51 52 53 53 53 53 54 55 55 55 54 54 55 56 56 56 56 56 56 55 55 55 54 53 51 51 51 50 50 49 48 46 44 42 40 39 37 34 33 32 32 32 32 32 32 32
32 33 34 36 37 39 40 42 43 44 45 46 47 48 48 49 50 51 51 52 52 52 53 53 54 54 53 53 54 54 55 55 55 55 55 55 54 54 54 53 52 51 51 50 50 49 49 48 46 44 42 39 38 37 35 34 33 32 33 33 32 32 32
32 32 33 34 35 37 38 40 41 42 43 44 45 46 47 47 49 50 50 51 51 52 52 53 53 53 53 53 53 54 54 54 54 54 54 54 54 53 53 52 51 50 49 49 49 49 49 47 45 43 41 39 37 36 35 35 34 34 33 33 33 33 33
31 31 32 34 35 36 37 37 38 39 41 42 43 44 45 46 47 48 49 50 50 51 52 52 53 53 52 53 53 54 53 53 53 53 53 54 53 52 51 51 50 49 48 48 49 49 48 47 46 44 42 40 38 37 36 35 34 34 34 34 34 35 35
32 32 32 34 35 35 35 34 34 36 37 39 41 42 43 44 46 47 47 48 49 50 51 51 52 52 52 53 53 53 53 52 52 52 53 53 52 51 50 50 49 49 48 48 48 48 49 48 47 45 43 41 38 36 35 35 34 35 36 36 36 35 34
31 31 31 32 32 32 32 31 31 32 33 35 37 39 41 42 43 44 45 46 47 48 49 50 51 51 52 52 53 53 52 52 52 52 52 52 51 50 49 49 48 48 47 47 47 47 48 48 47 46 44 41 38 37 37 37 36 38 38 36 35 35 34
30 30 30 30 30 30 29 29 29 28 29 31 33 35 37 38 40 41 42 44 44 45 47 48 49 50 51 51 51 51 52 52 52 52 52 51 50 49 48 48 47 47 47 46 46 46 46 46 47 46 44 42 41 40 39 37 37 37 37 35 34 35 34
29 29 29 30 29 29 29 28 27 27 26 27 29 31 33 34 36 38 39 41 42 44 45 46 47 48 48 49 50 50 51 51 51 51 51 50 49 48 47 47 46 47 47 46 46 46 46 47 48 48 45 43 42 40 38 37 36 36 36 35 35 36 35
28 27 27 28 28 28 28 28 27 27 26 26 26 27 29 31 32 34 36 38 40 41 43 44 45 46 46 47 48 49 50 50 50 50 49 49 48 48 47 46 46 46 46 46 46 46 46 48 49 48 45 42 41 39 38 37 36 36 36 36 36 37 36
27 27 27 27 27 26 26 26 26 26 27 26 25 25 26 28 29 30 31 33 35 37 39 41 42 43 44 45 46 47 47 48 48 48 48 48 47 47 47 46 46 46 46 45 45 46 47 48 49 46 43 41 40 39 37 37 36 36 36 36 37 38 37
26 27 26 26 27 26 26 25 25 25 25 25 24 23 23 24 26 27 28 29 30 32 34 36 39 40 41 42 43 44 45 46 46 46 46 46 46 46 47 47 46 46 46 45 44 45 46 46 45 44 42 40 38 36 36 36 36 35 35 36 37 37 36
25 25 25 26 26 26 26 25 25 25 24 24 23 21 20 20 22 24 26 27 27 27 28 30 33 36 38 40 41 41 42 43 44 44 44 44 45 46 46 46 46 46 46 46 45 46 44 42 40 40 38 37 35 35 35 35 34 34 34 35 36 35 34
24 24 24 24 24 25 25 25 24 24 24 23 22 20 18 18 20 22 25 26 26 27 27 27 28 30 32 35 37 38 39 40 41 41 42 43 44 45 46 46 46 46 46 46 46 45 43 40 39 38 38 37 36 35 35 34 34 34 34 35 35 35 35
22 23 23 23 23 24 24 23 23 23 23 23 21 19 18 19 20 22 24 25 25 25 26 27 28 29 29 30 31 32 33 36 38 39 40 42 43 43 44 45 45 45 45 45 45 44 42 40 38 37 37 37 36 36 35 34 34 35 36 36 37 38 38
21 21 22 22 21 22 22 21 20 21 21 20 19 18 17 19 20 21 23 24 24 24 24 25 26 27 29 31 30 29 29 31 34 35 36 39 40 41 43 43 43 43 43 43 43 42 40 38 37 37 38 37 37 36 34 35 38 39 38 38 39 40 38
20 19 20 20 19 19 19 18 17 18 18 16 16 15 15 17 19 20 21 21 21 22 22 22 22 24 27 30 31 31 30 30 31 31 31 34 37 39 41 42 41 40 40 40 40 39 38 37 37 36 36 36 35 34 33 34 36 35 34 36 37 36 34
19 18 17 17 17 16 17 16 14 14 14 13 12 12 13 16 17 18 18 17 17 17 16 16 18 20 25 28 29 30 31 30 30 29 29 29 32 37 40 40 38 36 35 36 37 37 37 38 37 35 34 33 31 30 31 32 32 29 30 33 34 33 32
19 18 17 16 16 16 16 17 15 14 14 14 13 12 13 15 16 17 17 18 17 17 16 15 14 16 20 24 26 28 29 28 28 30 30 29 30 34 35 33 33 33 33 34 36 37 38 39 39 38 38 37 35 34 34 34 33 32 33 35 36 36 37
20 19 18 17 17 17 18 19 19 18 17 17 17 17 17 18 19 20 20 21 21 21 21 19 18 18 18 19 21 23 25 25 25 27 30 33 33 33 31 31 32 33 33 35 36 36 36 37 38 39 40 40 41 41 41 40 40 40 39 39 40 40 40
20 20 19 18 18 19 19 20 21 20 20 20 20 20 20 21 22 22 22 22 23 23 23 22 22 22 22 21 22 22 23 24 25 26 29 33 35 33 32 33 35 35 35 36 36 36 36 36 36 37 37 38 40 41 41 41 43 45 46 47 45 43 42
21 21 20 19 18 18 19 19 19 20 20 20 21 20 20 21 22 22 22 23 23 24 24 24 24 24 25 25 26 26 26 27 28 29 31 33 34 33 33 33 35 36 37 37 37 37 37 36 35 34 34 34 34 35 34 35 37 40 43 46 47 47 45
21 22 21 21 20 19 19 18 18 18 19 19 20 20 20 20 20 21 23 24 25 25 26 27 27 27 26 24 24 24 25 27 29 31 32 33 33 34 33 33 33 35 37 38 39 40 40 39 37 35 35 34 32 31 31 31 32 33 35 39 41 42 43
21 21 21 21 20 20 20 19 19 19 19 19 20 20 20 20 19 19 20 22 23 24 24 24 25 26 26 24 23 24 26 28 29 31 33 33 33 33 33 33 32 32 33 35 38 40 41 41 40 38 37 35 33 31 31 32 32 32 33 34 36 37 38
20 20 20 20 20 21 21 21 21 21 21 20 20 19 19 18 17 17 17 19 20 21 21 21 20 21 23 24 26 28 31 33 34 34 34 34 33 33 33 33 33 33 32 33 34 35 37 38 37 36 35 34 33 33 33 33 33 33 33 33 34 35 37
20 20 21 21 22 23 24 24 25 25 24 23 22 21 20 19 19 18 19 21 22 22 21 22 22 22 22 23 24 25 28 32 35 37 38 38 37 36 35 35 35 35 35 35 34 33 32 32 30 30 31 32 33 34 33 33 33 33 33 33 33 34 36
20 20 20 21 23 25 27 28 28 27 26 25 24 23 23 22 22 21 23 24 24 23 23 23 24 24 24 24 24 25 25 27 29 32 35 38 39 39 39 38 37 35 35 35 34 34 33 31 29 28 28 28 30 30 30 30 30 31 32 32 32 34 36
16 17 19 22 23 25 27 27 27 26 25 24 22 21 21 21 21 21 24 26 25 24 24 25 25 25 25 25 26 27 27 27 27 27 29 30 32 35 36 37 37 37 36 36 35 34 34 33 32 32 31 29 29 29 29 29 29 29 30 31 33 35 37
11 14 20 24 24 24 23 22 23 25 24 23 21 20 20 19 17 17 22 27 26 25 25 26 26 27 26 26 26 27 27 27 27 28 28 28 28 29 30 32 34 36 36 36 36 36 35 35 34 34 33 33 32 31 31 30 31 31 31 33 34 36 37
15 18 22 24 24 23 21 22 25 26 24 23 21 20 21 21 17 17 24 29 28 26 26 26 25 25 24 24 24 25 25 26 26 26 27 27 28 28 29 29 31 33 34 35 36 37 37 37 36 34 34 33 33 32 31 31 31 31 32 33 34 36 37
20 22 23 23 23 22 22 24 26 26 25 23 19 18 22 25 23 24 29 31 29 28 27 25 25 24 23 23 23 22 23 23 24 24 24 24 25 26 27 27 28 29 29 31 33 34 35 36 36 35 35 35 34 33 32 32 31 31 32 32 33 35 36
23 24 24 24 24 23 23 25 25 25 24 20 16 18 24 28 27 27 30 31 30 29 28 26 25 24 23 23 23 23 23 22 23 23 23 23 24 24 25 26 26 26 26 28 29 30 31 33 34 34 35 35 35 34 33 33 32 32 32 32 32 33 34
25 26 26 27 26 25 25 25 25 24 22 17 16 21 26 27 26 26 26 26 26 25 24 24 23 22 21 21 21 20 21 21 22 23 23 23 24 24 24 25 26 26 26 27 28 28 29 29 30 31 32 32 33 33 33 33 33 32 31 31 31 31 31
27 26 27 27 26 25 25 24 23 22 18 15 16 22 26 25 24 23 21 19 19 18 18 18 18 18 18 18 17 17 17 17 19 20 21 22 23 23 24 24 24 25 27 27 27 28 29 29 29 29 29 29 30 31 31 32 32 31 30 30 30 30 30
28 26 24 23 23 22 22 21 22 21 19 17 19 22 24 23 22 20 19 18 17 17 16 16 16 16 17 17 17 17 16 16 16 16 17 19 20 21 22 22 22 23 24 26 27 28 28 28 29 29 28 28 28 29 29 30 29 29 29 29 28 28 28
Wind_Direction
281 281 281 281 282 282 281 280 279 277 275 272 271 270 268 266 263 262 263 262 260 260 258 257 258 259 259 257 256 256 256 256 255 254 253 253 252 251 250 249 245 246 250 252 254 255 255 255 253 252 252 252 252 251 250 252 252 253 254 255 257 258 258
280 281 281 281 281 282 282 281 279 277 274 272 271 270 268 266 263 263 263 261 260 260 258 257 258 259 259 256 254 255 255 255 254 253 253 252 251 251 251 250 248 247 248 250 252 254 255 255 253 251 252 253 252 251 250 252 253 254 256 257 258 259 259
279 280 280 280 280 281 281 281 279 276 273 272 271 270 268 267 265 264 264 262 261 261 259 258 258 259 258 255 253 254 253 253 252 252 252 252 251 252 252 252 249 248 249 250 252 254 255 255 254 253 253 252 252 251 251 252 254 256 257 257 258 260 261
276 276 277 277 277 278 280 280 279 277 274 273 271 270 269 268 266 265 265 264 263 262 260 258 259 260 259 254 253 254 252 251 250 250 250 251 251 251 252 252 251 250 251 252 252 253 254 255 255 255 254 252 251 251 252 253 255 256 256 258 259 261 262
275 274 274 274 275 277 279 280 280 278 275 274 272 270 269 268 266 266 265 265 264 263 260 259 260 261 258 254 253 253 252 250 249 249 249 250 250 250 251 252 252 251 251 251 251 252 253 254 254 253 253 251 250 249 250 251 253 254 256 258 260 260 260
276 275 274 274 275 276 276 277 278 278 276 275 273 271 269 268 266 265 265 264 264 263 261 259 260 261 258 254 254 254 252 251 250 249 249 250 250 250 250 250 252 252 250 249 251 251 250 251 251 251 251 250 249 249 250 250 252 254 256 257 257 257 259
277 277 276 276 275 274 273 273 275 276 276 275 273 271 269 268 266 265 264 264 263 262 261 260 260 260 257 255 255 256 254 252 251 250 250 250 250 249 248 249 250 250 249 249 249 248 248 249 250 250 250 249 249 250 250 250 252 253 253 254 257 259 261
280 278 276 274 273 272 272 271 272 274 275 274 273 271 270 268 266 265 264 264 263 262 261 260 260 259 258 257 258 258 256 254 252 251 250 250 249 247 247 248 249 249 249 248 247 246 247 248 248 248 247 246 246 245 247 249 250 252 254 256 259 261 263
283 280 277 275 273 272 272 271 271 272 272 273 272 271 270 269 267 266 265 264 264 263 261 260 260 259 259 259 259 259 258 256 255 253 251 251 249 247 246 247 247 247 247 246 245 245 245 245 246 245 244 244 245 246 249 251 252 255 258 260 262 263 264
286 284 282 279 276 274 272 272 271 270 270 270 271 270 270 269 268 267 265 265 264 263 262 261 260 260 260 260 260 259 258 256 256 255 254 254 252 250 249 247 246 246 246 245 245 246 245 245 246 246 244 246 248 250 252 252 254 257 260 262 264 265 265
289 287 286 284 282 279 276 273 271 270 269 269 269 269 269 268 268 267 267 266 265 264 264 263 262 261 261 259 259 258 257 256 256 256 255 254 253 253 253 251 249 248 247 246 247 248 246 246 248 248 247 248 250 251 252 253 255 258 259 261 264 266 266
290 290 288 287 285 283 281 278 275 272 270 268 267 267 268 268 267 267 267 266 266 266 265 264 263 262 261 260 259 259 258 257 256 255 255 254 254 254 255 255 254 252 250 249 249 249 249 249 249 248 248 249 251 251 253 255 255 257 260 262 265 267 268
291 290 289 288 287 285 284 282 280 278 275 272 270 268 269 271 270 269 268 268 268 268 267 266 265 263 262 262 261 259 258 256 255 254 254 253 253 253 254 254 254 253 253 253 253 253 253 253 251 248 249 252 253 254 255 255 256 258 261 263 265 267 270
291 289 289 288 287 286 285 285 284 283 281 279 277 275 273 271 272 274 274 273 273 271 270 268 266 265 264 263 262 260 258 256 255 253 252 251 250 250 251 251 250 250 250 251 252 253 254 252 250 249 252 255 255 255 255 255 258 261 263 266 269 272 274
294 292 291 290 289 288 287 287 287 285 284 283 281 280 276 269 265 268 272 276 276 275 274 272 269 268 267 266 264 263 261 258 256 254 252 251 250 250 250 250 249 248 247 248 250 252 250 249 249 251 254 255 256 257 258 260 263 266 268 269 271 271 269
296 295 294 293 292 291 289 290 289 287 286 284 281 278 274 269 263 261 265 271 275 276 275 273 270 267 266 267 267 266 264 262 258 255 252 251 251 251 250 250 252 251 248 248 251 251 249 249 252 255 257 258 259 259 262 265 266 266 265 265 265 265 264
298 298 297 296 295 293 292 292 291 289 287 286 284 280 273 269 266 263 263 267 271 274 275 274 271 268 266 265 266 266 266 263 259 256 254 253 252 251 251 252 252 251 248 248 249 250 251 253 256 258 259 260 261 262 262 262 262 261 260 260 261 261 262
301 300 298 298 298 295 294 294 293 291 289 288 287 282 274 269 268 268 269 270 271 273 274 275 274 271 267 264 264 264 263 261 258 256 256 255 253 252 251 251 251 250 249 248 246 246 250 254 257 259 261 262 262 264 263 258 256 257 257 256 256 258 261
302 301 298 297 297 295 294 293 290 288 288 287 286 282 275 271 272 274 276 276 275 274 272 271 270 267 265 264 264 263 261 259 256 255 255 256 254 252 251 252 252 252 251 249 247 247 250 252 252 252 253 254 255 256 257 257 255 254 253 253 255 256 257
304 303 300 298 296 294 293 292 289 287 287 286 284 282 279 276 277 280 281 279 279 278 274 269 263 261 263 265 265 264 261 257 253 252 255 256 253 253 254 254 254 253 252 253 255 257 257 255 253 250 247 246 245 243 244 248 251 251 250 252 256 257 257
306 304 303 300 299 297 297 296 294 293 291 289 287 284 282 281 281 284 285 283 282 281 280 277 270 262 260 261 263 264 262 257 251 250 255 257 256 257 260 260 258 258 259 261 262 261 260 257 255 253 251 249 247 246 244 244 247 249 251 252 253 255 256
308 307 305 303 302 300 300 300 299 298 296 293 291 288 286 285 284 285 286 285 282 281 281 281 278 272 268 263 259 258 255 252 248 247 251 257 260 263 263 262 263 263 263 262 261 259 257 255 253 252 251 250 250 250 249 247 246 248 250 252 252 253 254
312 311 309 308 305 303 303 302 300 300 298 295 293 291 289 287 285 283 283 281 280 277 275 274 274 273 271 269 267 265 261 257 254 251 250 254 258 261 262 261 262 262 261 261 260 257 255 253 251 250 249 249 249 249 249 248 246 245 246 249 251 253 255
316 316 315 313 310 307 306 305 303 302 300 298 296 295 293 291 288 285 283 281 280 279 277 274 272 270 270 271 272 270 265 261 258 256 255 254 255 257 258 257 257 256 256 256 255 254 254 254 254 252 250 250 252 252 250 248 246 244 244 246 249 252 254
319 318 317 317 314 310 306 304 303 302 302 302 301 301 300 298 296 294 292 290 288 286 285 284 280 276 271 267 262 257 255 254 253 253 254 253 253 254 255 255 254 252 249 248 248 249 251 253 255 256 257 258 259 258 255 252 249 247 245 245 246 249 251
321 319 320 320 318 313 309 307 307 308 309 310 309 308 306 303 300 299 297 295 292 288 285 283 281 278 273 268 262 256 253 252 252 252 253 253 253 252 252 253 254 253 251 249 248 248 249 252 255 257 260 260 259 256 254 252 251 250 248 247 247 249 250
327 331 333 327 320 317 315 315 316 317 317 318 317 317 317 315 312 309 306 302 297 291 286 281 276 273 270 268 266 262 258 256 255 255 255 256 256 256 255 254 254 255 255 255 253 252 253 255 256 255 255 254 253 253 252 252 251 251 250 249 250 251 251
339 343 335 321 315 314 313 314 316 317 318 319 321 324 325 323 320 317 313 307 300 295 290 284 278 274 271 268 268 266 264 262 261 259 258 258 258 258 258 258 258 259 259 259 258 257 256 255 254 251 249 249 248 248 249 248 248 247 247 247 249 251 252
346 337 317 306 307 308 310 313 313 311 312 314 318 323 323 320 320 318 308 298 294 292 291 288 285 283 279 276 273 270 268 266 264 262 261 260 259 259 258 258 259 260 260 261 262 262 260 257 256 256 254 252 250 247 246 246 245 246 246 246 248 250 252
326 312 301 300 304 306 309 311 306 304 307 307 309 315 315 312 320 320 299 286 283 284 284 286 288 287 284 281 279 276 274 272 269 267 264 261 260 260 259 257 256 256 258 260 261 262 262 260 261 261 259 257 254 253 252 251 250 249 248 247 248 250 252
301 298 299 302 307 308 307 302 298 301 305 304 307 314 306 296 300 300 287 282 284 285 284 284 285 285 283 280 278 276 274 274 272 271 269 266 262 260 259 259 257 256 256 258 259 260 261 262 262 261 259 258 258 258 257 255 251 248 246 246 247 249 252
304 301 301 302 304 305 303 301 301 304 305 305 313 315 298 285 283 283 282 284 288 289 289 289 286 284 282 280 279 277 275 273 272 271 270 269 267 264 260 260 260 259 258 258 259 260 260 260 260 259 258 258 259 259 257 254 250 247 246 246 247 248 250
309 307 306 305 304 303 303 303 305 306 306 309 313 303 289 286 288 288 288 290 291 291 293 293 291 290 288 285 284 283 281 279 276 273 271 270 269 268 265 261 259 258 258 258 258 259 260 259 259 258 258 259 259 258 256 253 251 250 249 248 247 247 249
314 313 313 313 312 311 310 309 310 311 313 317 312 298 294 297 299 297 294 293 292 293 294 294 295 296 295 294 293 290 288 285 281 277 275 272 269 268 267 264 261 259 257 257 257 257 258 259 259 258 257 258 258 257 256 254 253 252 250 248 248 248 249
319 318 318 318 318 317 316 316 317 320 324 328 318 308 308 311 312 309 306 303 301 302 303 301 302 303 302 301 300 297 294 292 288 283 279 276 273 271 269 266 264 262 260 259 258 258 258 258 259 259 257 257 257 256 255 254 253 253 252 251 250 249 249
320 321 322 321 321 322 322 323 325 328 331 330 323 320 322 326 327 328 327 324 320 318 317 315 314 312 310 309 308 305 303 300 297 293 287 282 280 279 277 274 270 266 263 260 258 258 257 257 258 258 258 258 257 256 255 254 254 254 253 252 251 251 250
Height
1423 1423 1422 1421 1420 1419 1419 1419 1419 1419 1419 1419 1418 1418 1419 1419 1420 1419 1419 1420 1421 1421 1422 1423 1424 1424 1426 1429 1430 1431 1432 1433 1434 1436 1437 1439 1440 1441 1443 1446 1447 1446 1446 1447 1448 1449 1452 1455 1456 1457 1458 1459 1460 1460 1461 1461 1463 1464 1464 1465 1465 1466 1467
1418 1418 1417 1416 1415 1414 1414 1413 1413 1414 1414 1413 1412 1413 1413 1413 1414 1413 1413 1414 1414 1415 1416 1417 1417 1417 1419 1423 1424 1424 1425 1426 1428 1429 1430 1432 1433 1434 1436 1439 1441 1441 1442 1442 1442 1444 1446 1448 1450 1451 1453 1454 1455 1456 1456 1457 1458 1459 1460 1460 1461 1461 1462
1413 1413 1412 1411 1410 1409 1408 1407 1407 1408 1407 1407 1407 1407 1407 1408 1408 1407 1407 1408 1408 1409 1410 1411 1411 1411 1413 1416 1417 1418 1419 1420 1421 1422 1423 1425 1427 1428 1430 1432 1435 1436 1437 1437 1438 1439 1440 1442 1444 1445 1447 1449 1450 1451 1452 1452 1453 1454 1455 1455 1456 1456 1457
1408 1408 1407 1406 1405 1404 1403 1402 1402 1402 1401 1401 1401 1401 1402 1402 1402 1402 1402 1402 1402 1404 1405 1405 1404 1405 1407 1410 1410 1411 1413 1414 1415 1416 1417 1419 1421 1422 1424 1426 1429 1430 1432 1433 1433 1433 1434 1436 1438 1440 1442 1443 1445 1446 1447 1448 1449 1449 1450 1451 1451 1452 1452
1403 1403 1402 1401 1400 1399 1398 1397 1397 1396 1395 1395 1395 1396 1396 1396 1396 1396 1396 1397 1397 1398 1399 1399 1399 1400 1402 1403 1404 1404 1406 1408 1409 1410 1412 1413 1415 1416 1418 1420 1423 1425 1427 1428 1428 1428 1429 1431 1433 1434 1436 1437 1439 1440 1442 1442 1443 1444 1445 1446 1447 1447 1448
1398 1398 1397 1396 1395 1394 1393 1392 1392 1390 1390 1390 1390 1390 1390 1391 1391 1391 1391 1392 1392 1393 1393 1393 1393 1395 1396 1397 1397 1398 1400 1402 1403 1405 1406 1407 1409 1411 1413 1415 1417 1419 1421 1422 1423 1423 1424 1425 1427 1428 1430 1432 1433 1435 1436 1437 1439 1440 1441 1442 1442 1442 1443
1393 1393 1392 1390 1390 1389 1388 1387 1386 1385 1385 1385 1385 1385 1385 1385 1385 1386 1386 1386 1387 1387 1388 1388 1388 1389 1390 1391 1391 1392 1394 1396 1397 1399 1400 1401 1404 1406 1408 1409 1411 1413 1415 1416 1417 1418 1418 1419 1421 1423 1425 1426 1429 1430 1431 1432 1434 1435 1436 1436 1437 1438 1438
1388 1388 1387 1386 1385 1384 1383 1382 1381 1380 1380 1380 1380 1380 1380 1380 1380 1380 1381 1381 1381 1382 1382 1382 1383 1383 1384 1385 1386 1387 1388 1390 1391 1393 1394 1396 1398 1400 1402 1404 1405 1407 1408 1409 1411 1412 1412 1414 1416 1417 1419 1421 1423 1423 1424 1426 1429 1429 1430 1432 1433 1433 1433
1384 1383 1382 1381 1381 1380 1379 1377 1376 1376 1375 1375 1375 1375 1375 1375 1375 1375 1376 1376 1376 1376 1377 1377 1377 1378 1379 1379 1380 1382 1383 1384 1386 1387 1389 1390 1393 1395 1397 1398 1400 1401 1402 1404 1405 1406 1407 1408 1409 1410 1412 1414 1415 1417 1419 1422 1424 1424 1425 1427 1427 1427 1428
1381 1379 1378 1377 1376 1375 1374 1373 1372 1371 1371 1371 1370 1370 1370 1370 1370 1370 1371 1371 1371 1371 1371 1372 1372 1373 1374 1375 1376 1377 1378 1379 1380 1382 1383 1385 1387 1389 1391 1393 1394 1395 1396 1398 1399 1400 1401 1402 1402 1403 1406 1408 1410 1413 1416 1418 1419 1419 1420 1421 1421 1421 1422
1377 1376 1374 1373 1372 1371 1370 1369 1368 1367 1367 1366 1366 1365 1365 1365 1365 1365 1365 1365 1365 1365 1366 1366 1367 1368 1369 1370 1370 1371 1373 1374 1375 1377 1378 1380 1382 1383 1385 1387 1388 1389 1391 1392 1393 1394 1395 1395 1395 1398 1401 1404 1406 1409 1410 1412 1414 1414 1415 1416 1416 1415 1416
1374 1372 1371 1369 1368 1367 1366 1365 1364 1363 1363 1362 1362 1361 1361 1360 1360 1360 1360 1360 1360 1360 1361 1362 1362 1363 1363 1364 1365 1366 1368 1369 1370 1372 1373 1375 1377 1378 1380 1381 1383 1384 1385 1387 1388 1389 1389 1389 1390 1393 1396 1398 1401 1404 1406 1407 1408 1409 1410 1410 1410 1409 1410
1370 1369 1367 1366 1364 1363 1362 1361 1360 1359 1359 1358 1358 1357 1357 1356 1356 1356 1355 1355 1356 1356 1357 1357 1357 1358 1358 1359 1360 1362 1363 1364 1365 1367 1369 1371 1372 1373 1374 1376 1377 1379 1380 1382 1383 1383 1383 1384 1387 1389 1391 1394 1397 1399 1401 1402 1402 1404 1405 1405 1404 1405 1406
1366 1365 1364 1362 1361 1360 1359 1358 1357 1356 1355 1354 1354 1354 1353 1353 1352 1352 1351 1351 1351 1352 1352 1353 1353 1353 1354 1355 1356 1357 1358 1359 1361 1362 1364 1366 1367 1367 1369 1370 1372 1374 1375 1376 1377 1378 1378 1380 1383 1385 1387 1390 1393 1394 1395 1396 1397 1399 1400 1400 1400 1401 1403
1363 1361 1360 1359 1358 1357 1355 1355 1354 1353 1352 1351 1351 1350 1350 1349 1349 1348 1347 1347 1347 1348 1348 1349 1349 1349 1350 1351 1351 1353 1354 1355 1357 1358 1359 1360 1361 1362 1363 1365 1366 1368 1370 1371 1372 1372 1374 1377 1379 1381 1383 1385 1387 1388 1390 1392 1393 1394 1395 1395 1395 1396 1396
1360 1358 1357 1356 1355 1354 1353 1352 1351 1350 1349 1348 1347 1347 1346 1346 1345 1344 1344 1343 1343 1344 1344 1345 1345 1346 1346 1347 1347 1349 1350 1351 1352 1354 1354 1355 1356 1357 1358 1359 1361 1363 1365 1366 1367 1368 1370 1373 1375 1377 1378 1380 1382 1383 1385 1388 1388 1388 1389 1389 1389 1389 1389
1358 1356 1355 1354 1353 1351 1350 1349 1348 1347 1346 1345 1344 1344 1343 1342 1341 1340 1340 1339 1340 1340 1340 1341 1341 1342 1342 1343 1343 1345 1346 1348 1348 1349 1350 1351 1351 1353 1353 1354 1356 1359 1361 1363 1364 1364 1366 1369 1370 1372 1373 1375 1376 1378 1380 1382 1381 1381 1383 1384 1383 1382 1383
1356 1354 1353 1351 1350 1349 1347 1346 1345 1344 1343 1342 1342 1341 1340 1339 1338 1337 1336 1336 1336 1336 1337 1337 1338 1338 1339 1339 1340 1341 1343 1344 1344 1345 1345 1346 1347 1348 1348 1349 1351 1354 1356 1358 1360 1361 1363 1364 1365 1367 1368 1369 1370 1372 1374 1374 1374 1376 1378 1378 1377 1377 1379
1353 1352 1351 1349 1348 1346 1345 1344 1343 1342 1341 1340 1339 1339 1338 1336 1335 1334 1334 1333 1333 1333 1333 1334 1334 1335 1335 1336 1337 1338 1339 1341 1341 1341 1341 1343 1343 1343 1343 1345 1348 1350 1352 1354 1355 1357 1358 1359 1361 1362 1363 1364 1366 1367 1368 1367 1369 1372 1373 1372 1372 1374 1376
1352 1350 1349 1348 1346 1345 1343 1342 1341 1341 1340 1339 1338 1337 1336 1334 1333 1332 1331 1331 1331 1330 1330 1331 1331 1332 1332 1333 1334 1335 1336 1337 1338 1338 1337 1338 1338 1338 1339 1342 1344 1346 1347 1349 1350 1351 1352 1354 1355 1357 1358 1360 1361 1363 1364 1363 1364 1365 1367 1367 1368 1369 1370
1350 1349 1348 1347 1345 1344 1342 1341 1340 1339 1339 1338 1337 1336 1335 1334 1332 1331 1330 1329 1329 1328 1328 1328 1329 1329 1330 1331 1331 1332 1333 1334 1335 1336 1335 1333 1333 1334 1337 1339 1340 1341 1343 1344 1344 1345 1346 1347 1349 1350 1352 1354 1355 1357 1359 1360 1360 1360 1361 1362 1363 1364 1364
1348 1347 1346 1345 1344 1342 1341 1339 1338 1337 1336 1335 1334 1334 1333 1332 1331 1330 1329 1327 1326 1326 1325 1325 1325 1326 1327 1328 1328 1329 1330 1331 1332 1333 1332 1330 1330 1332 1334 1335 1335 1336 1337 1337 1338 1339 1339 1340 1342 1343 1345 1347 1348 1350 1353 1355 1356 1356 1356 1356 1357 1359 1360
1346 1344 1343 1342 1341 1340 1339 1337 1336 1334 1333 1332 1331 1331 1330 1330 1329 1328 1327 1325 1323 1323 1323 1322 1322 1322 1323 1324 1324 1325 1326 1327 1328 1329 1329 1328 1329 1329 1330 1330 1330 1330 1330 1331 1332 1332 1333 1334 1336 1337 1339 1341 1342 1344 1347 1348 1350 1351 1351 1351 1352 1354 1355
1344 1342 1341 1339 1338 1338 1336 1335 1334 1332 1331 1330 1329 1328 1328 1327 1326 1325 1324 1322 1321 1320 1320 1319 1319 1319 1320 1321 1321 1322 1322 1322 1323 1323 1323 1324 1325 1326 1326 1326 1325 1324 1324 1325 1325 1326 1326 1328 1330 1332 1334 1336 1339 1341 1342 1343 1345 1346 1347 1348 1349 1350 1351
1343 1341 1339 1337 1336 1335 1334 1333 1332 1330 1329 1328 1327 1326 1325 1324 1323 1322 1321 1320 1318 1317 1317 1316 1316 1316 1316 1317 1317 1317 1317 1317 1317 1317 1318 1318 1319 1320 1320 1321 1321 1321 1320 1320 1319 1320 1320 1322 1324 1326 1329 1332 1335 1337 1337 1338 1340 1342 1343 1344 1345 1346 1347
1341 1339 1338 1336 1334 1333 1331 1331 1329 1328 1327 1326 1325 1324 1323 1322 1321 1319 1318 1317 1315 1314 1313 1312 1312 1312 1311 1311 1312 1312 1312 1311 1312 1312 1313 1313 1314 1314 1314 1315 1316 1316 1316 1316 1316 1316 1316 1317 1320 1322 1324 1327 1329 1330 1331 1333 1335 1336 1338 1339 1340 1341 1341
1340 1338 1336 1334 1332 1330 1329 1328 1327 1326 1325 1324 1322 1321 1320 1319 1318 1316 1315 1313 1311 1310 1310 1309 1308 1308 1307 1306 1306 1306 1306 1306 1307 1307 1308 1308 1309 1309 1310 1310 1310 1311 1311 1311 1312 1312 1313 1314 1316 1317 1319 1320 1322 1323 1325 1327 1329 1331 1332 1334 1335 1336 1335
1339 1337 1335 1332 1330 1329 1327 1326 1325 1324 1323 1321 1320 1319 1318 1316 1315 1314 1312 1309 1308 1307 1306 1305 1305 1304 1303 1303 1302 1302 1302 1302 1302 1302 1302 1303 1303 1304 1305 1305 1306 1306 1306 1306 1307 1308 1309 1310 1312 1312 1313 1315 1316 1318 1320 1322 1324 1325 1327 1329 1330 1329 1329
1340 1338 1334 1331 1330 1328 1325 1324 1323 1322 1321 1321 1319 1319 1317 1315 1314 1312 1309 1306 1305 1304 1303 1302 1301 1301 1300 1300 1299 1298 1298 1298 1297 1297 1297 1297 1298 1299 1299 1300 1300 1301 1301 1301 1303 1303 1304 1306 1307 1308 1309 1310 1312 1313 1315 1317 1319 1320 1322 1323 1323 1323 1323
1340 1337 1332 1330 1329 1327 1325 1323 1321 1319 1320 1319 1318 1317 1315 1313 1312 1310 1305 1302 1302 1302 1300 1298 1298 1297 1296 1296 1295 1294 1294 1293 1293 1293 1293 1293 1293 1294 1294 1295 1295 1296 1297 1297 1298 1298 1299 1301 1302 1303 1304 1305 1307 1308 1311 1312 1314 1316 1317 1318 1318 1318 1318
1337 1334 1331 1329 1327 1325 1323 1321 1318 1317 1317 1316 1316 1314 1310 1308 1308 1306 1300 1298 1298 1298 1297 1296 1295 1293 1293 1292 1291 1290 1290 1289 1289 1288 1288 1288 1288 1289 1289 1289 1290 1291 1292 1293 1293 1293 1294 1295 1296 1298 1299 1300 1302 1303 1305 1307 1309 1310 1311 1312 1312 1313 1313
1334 1332 1330 1328 1325 1323 1320 1318 1316 1315 1314 1313 1313 1310 1305 1303 1303 1301 1297 1295 1296 1295 1293 1293 1291 1290 1290 1289 1288 1287 1286 1286 1285 1285 1284 1284 1284 1284 1285 1285 1285 1286 1287 1287 1288 1288 1289 1290 1291 1292 1294 1295 1297 1298 1299 1301 1303 1304 1305 1307 1307 1308 1308
1331 1328 1327 1325 1323 1321 1318 1315 1313 1312 1311 1310 1309 1305 1300 1299 1300 1298 1295 1293 1292 1291 1290 1289 1288 1287 1286 1285 1284 1284 1283 1282 1282 1281 1281 1280 1280 1279 1280 1280 1281 1281 1282 1282 1283 1283 1284 1285 1286 1288 1289 1290 1291 1293 1294 1295 1297 1299 1300 1301 1302 1303 1304
1328 1325 1322 1320 1319 1317 1315 1312 1310 1308 1307 1306 1304 1300 1297 1297 1296 1295 1293 1291 1289 1288 1287 1286 1284 1284 1283 1282 1281 1280 1280 1279 1278 1278 1277 1277 1276 1276 1276 1276 1276 1277 1277 1277 1278 1278 1279 1280 1281 1282 1284 1285 1286 1288 1289 1290 1291 1293 1295 1296 1297 1298 1300
1324 1322 1320 1317 1315 1313 1311 1309 1307 1306 1305 1303 1300 1297 1295 1294 1292 1291 1290 1289 1287 1286 1284 1283 1282 1281 1280 1279 1278 1278 1277 1276 1275 1275 1274 1273 1273 1273 1272 1272 1273 1273 1273 1273 1273 1274 1274 1275 1276 1277 1279 1280 1281 1282 1283 1285 1286 1288 1289 1291 1292 1294 1295
1321 1319 1317 1315 1313 1311 1309 1307 1306 1304 1302 1300 1298 1294 1292 1291 1289 1288 1287 1286 1285 1283 1282 1281 1281 1279 1278 1277 1276 1275 1275 1274 1273 1272 1272 1271 1270 1270 1269 1269 1269 1269 1269 1269 1269 1269 1270 1271 1272 1273 1274 1275 1276 1277 1278 1280 1281 1283 1284 1286 1287 1289 1291